SCP
0 0 1 1 1 0 0 0 0 0 0 0 0 0 0 0 0 0 0 0 0 0 0 0 0 0 0 0 0 0 0 0 0 0 0 0 0 0 0 0 0 0 0 0 0 0 0 0 0
0 1 1 1 0 0 0 0 0 0 0 0 0 0 0 0 0 0 0 0 0 0 0 0 0 0 0 0 0 0 0 0 0 0 0 0 0 0 0 0 0 0 0 0 0 0 0 0 0
1 1 1 0 0 0 0 0 0 0 0 0 0 0 0 0 0 0 0 0 0 0 0 0 0 0 0 0 0 0 0 0 0 0 0 0 0 0 0 0 0 0 0 0 0 0 0 0 0
1 1 0 0 0 0 0 0 0 0 0 0 0 0 0 0 0 0 0 0 0 0 0 0 0 0 0 0 0 0 0 0 0 0 0 0 0 0 0 0 0 0 0 0 0 0 0 0 0
1 0 0 0 0 0 0 0 0 0 0 0 0 0 0 0 0 0 0 0 0 0 0 0 0 0 0 0 0 0 0 0 0 0 0 0 0 0 0 0 0 0 0 0 0 0 0 0 0
0 0 0 0 0 0 0 0 0 0 0 0 0 0 0 0 0 0 0 0 0 0 0 0 0 0 0 0 0 0 0 0 0 0 0 0 0 0 0 0 0 0 0 0 0 0 0 0 0
0 0 0 0 0 0 0 0 0 0 0 0 0 0 0 0 0 0 0 0 0 0 0 0 0 0 0 0 0 0 0 0 0 0 0 0 0 0 0 0 0 0 0 0 0 0 0 0 0
0 0 0 0 0 0 0 0 0 0 0 0 0 0 0 0 0 0 0 0 0 0 0 0 0 0 0 0 0 0 0 0 0 0 0 0 0 0 0 0 0 0 0 0 0 0 0 0 0
0 0 0 0 0 0 0 0 0 0 0 0 0 0 0 0 0 0 0 0 0 0 0 0 0 0 0 0 0 0 0 0 0 0 0 0 0 0 0 0 0 0 0 0 0 0 0 0 0
0 0 0 0 0 0 0 0 0 0 0 0 0 0 0 0 0 0 0 0 0 0 0 0 0 0 0 0 0 0 0 0 0 0 0 0 0 0 0 0 0 0 0 0 0 0 0 0 0
0 0 0 0 0 0 0 0 0 0 0 0 0 0 0 0 0 0 0 0 0 0 0 0 0 0 0 0 0 0 0 0 0 0 0 0 0 0 0 0 0 0 0 0 0 0 0 0 0
0 0 0 0 0 0 0 0 0 0 0 0 0 0 0 0 0 0 0 0 0 0 0 0 0 0 0 0 0 0 0 0 0 0 0 0 0 0 0 0 0 0 0 0 0 0 0 0 0
0 0 0 0 0 0 0 0 0 0 0 0 0 0 0 0 0 0 0 0 0 0 0 0 0 0 0 0 0 0 0 0 0 0 0 0 0 0 0 0 0 0 0 0 0 0 0 0 0
0 0 0 0 0 0 0 0 0 0 0 0 0 0 0 0 0 0 0 0 0 0 0 0 0 0 0 0 0 0 0 0 0 0 0 0 0 0 0 0 0 0 0 0 0 0 0 0 0
0 0 0 0 0 0 0 0 0 0 0 0 0 0 0 0 0 0 0 0 0 0 0 0 0 0 0 0 0 0 0 0 0 0 0 0 0 0 0 0 0 0 0 0 0 0 0 0 0
0 0 0 0 0 0 0 0 0 0 0 0 0 0 0 0 0 0 0 0 0 0 0 0 0 0 0 0 0 0 0 0 0 0 0 0 0 0 0 0 0 0 0 0 0 0 0 0 0
0 0 0 0 0 0 0 0 0 0 0 0 0 0 0 0 0 0 0 0 0 0 0 0 0 0 0 0 0 0 0 0 0 0 0 0 0 0 0 0 0 0 0 0 0 0 0 0 0
0 0 0 0 0 0 0 0 0 0 0 0 0 0 0 0 0 0 0 0 1 1 1 0 0 0 0 0 0 0 0 0 0 0 0 0 0 0 0 0 0 0 0 0 0 0 0 0 0
0 0 0 0 0 0 0 0 0 0 0 0 0 0 1 1 1 1 0 1 1 1 1 1 0 0 0 0 0 0 0 0 0 0 0 0 0 0 0 0 0 0 0 0 0 0 0 0 0
0 0 0 0 0 0 0 0 0 0 0 0 0 1 1 1 1 1 1 1 1 1 1 1 1 1 0 0 0 0 0 0 0 0 0 0 0 0 0 0 0 0 0 0 0 0 0 0 0
0 0 0 0 0 0 0 0 0 0 0 0 0 0 1 1 1 1 1 1 1 1 1 1 1 1 1 0 0 0 0 0 0 0 0 0 0 0 0 0 0 0 0 0 0 0 0 0 0
0 0 0 0 0 0 0 0 0 0 0 0 0 0 1 1 1 1 1 1 1 1 1 1 1 1 1 1 0 0 0 0 0 0 0 0 0 0 0 0 0 0 0 0 0 0 0 0 0
0 0 0 0 0 0 0 0 0 0 0 0 0 0 0 1 1 1 1 1 1 1 1 1 1 1 1 1 1 0 0 0 0 0 0 0 0 0 0 0 0 0 0 0 0 0 0 0 0
0 0 0 0 0 0 0 0 0 0 0 0 0 0 0 1 1 1 1 1 1 1 1 1 1 1 1 1 1 1 1 1 0 0 0 0 0 0 0 0 0 0 0 0 0 0 0 0 0
0 0 0 0 0 0 0 0 0 0 0 0 0 0 0 0 1 1 1 1 1 1 1 1 1 1 1 1 1 1 1 1 1 0 0 0 0 0 0 0 0 0 0 0 0 0 0 0 0
0 0 0 0 0 0 0 0 0 0 0 0 0 0 0 0 1 1 1 1 1 1 1 1 1 1 1 1 1 1 1 1 1 0 0 0 0 0 0 0 0 0 0 0 0 0 0 0 0
0 0 0 0 0 0 0 0 0 0 0 0 0 0 0 0 1 1 1 1 1 1 1 1 2 1 1 1 1 1 1 1 1 1 0 0 0 0 0 0 0 0 0 0 0 0 0 0 0
0 0 0 0 0 0 0 0 0 0 0 0 0 0 0 0 1 1 1 1 1 1 1 2 2 1 1 1 1 1 1 1 1 1 1 1 0 0 0 0 0 0 0 0 0 0 0 0 0
0 0 0 0 0 0 0 0 0 0 0 0 0 0 0 1 1 1 1 1 1 1 1 1 1 1 1 1 1 1 1 1 1 1 1 1 0 0 0 0 0 0 0 0 0 0 0 0 0
0 0 0 0 0 0 0 0 0 0 0 0 0 0 1 1 1 1 1 1 1 1 1 1 1 1 1 1 1 1 1 1 1 1 1 1 1 0 0 0 0 0 0 0 0 0 0 0 0
Wind_Speed
9 11 9 6 3 5 15 15 14 15 16 15 16 15 18 16 12 11 8 12 14 14 13 13 13 13 13 13 13 14 15 15 15 15 15 15 15 15 15 15 15 15 15 15 14 14 14 14 14
10 12 8 4 2 9 14 14 14 15 14 14 17 17 18 18 16 13 10 12 14 14 12 12 12 13 13 13 13 14 14 14 14 14 15 15 14 15 15 14 14 14 14 14 13 13 14 14 13
12 14 6 1 9 13 14 13 13 14 13 14 16 17 15 14 15 12 10 13 15 15 13 13 13 13 13 13 14 14 14 14 14 14 14 14 14 14 14 14 13 13 13 13 13 14 14 13 12
9 6 2 5 16 16 14 12 13 13 12 13 14 13 14 14 14 14 12 14 15 15 14 13 13 14 14 14 13 13 13 14 14 14 13 13 14 14 14 14 13 13 13 13 13 13 13 12 11
9 2 4 11 16 14 13 13 13 13 14 17 17 16 15 14 14 14 12 12 14 16 14 14 14 14 14 14 13 13 13 13 13 13 13 14 13 13 13 13 13 13 13 13 13 12 12 11 10
5 0 5 11 15 14 14 14 15 14 15 16 17 17 14 12 12 12 12 12 13 16 15 13 14 14 14 13 13 13 13 13 13 13 13 13 13 12 12 12 12 13 12 12 12 12 11 10 8
3 2 7 13 14 13 13 13 14 13 12 13 16 16 13 12 11 12 12 11 13 14 14 12 12 12 13 13 12 12 12 12 11 11 11 11 12 12 12 11 11 11 11 11 10 10 9 8 6
1 3 8 13 14 14 13 13 13 13 12 11 12 12 13 12 12 12 11 11 11 11 11 12 12 11 10 10 11 11 10 10 10 9 10 10 10 10 10 10 10 10 9 9 9 8 7 6 4
2 3 8 13 13 13 12 14 14 14 13 13 15 17 15 13 13 12 11 10 9 9 8 8 10 10 10 11 11 10 9 8 8 7 7 7 5 7 7 10 10 9 8 8 7 6 5 4 3
5 6 12 13 13 12 12 12 13 13 14 15 17 16 14 12 11 10 10 10 9 8 8 7 8 7 6 7 7 6 6 6 4 4 5 3 2 4 7 9 9 8 7 7 6 6 5 4 3
8 9 12 13 13 12 11 11 12 12 13 15 15 15 13 12 10 10 10 10 9 7 7 8 8 5 5 4 4 3 3 4 4 4 4 3 3 3 5 4 5 5 6 5 5 5 4 3 2
8 9 10 11 11 11 11 11 13 13 14 16 15 14 12 11 10 10 10 10 8 7 7 7 8 6 5 4 2 3 3 3 2 3 2 2 1 2 2 2 3 3 2 2 3 2 2 1 1
7 9 10 10 10 11 11 12 15 15 15 16 15 13 11 11 11 10 10 10 9 7 7 7 7 6 4 3 2 2 2 3 4 3 2 2 2 2 2 1 1 1 1 2 2 1 1 0 0
6 8 8 9 9 11 12 11 13 15 15 15 14 12 11 11 11 11 10 9 8 7 7 7 7 6 4 2 1 1 2 2 3 2 2 2 2 2 2 1 1 0 1 1 1 1 2 1 1
5 6 7 8 9 11 11 8 13 13 14 14 13 11 11 10 10 9 9 8 8 7 7 6 6 6 4 3 1 1 1 3 3 3 2 2 2 2 1 1 2 1 1 2 1 1 1 1 1
4 4 5 5 7 10 8 8 12 13 13 13 12 12 10 9 9 9 10 8 8 7 6 3 5 7 4 2 0 1 2 2 2 2 2 2 2 1 0 0 1 1 1 1 1 1 1 1 1
5 5 6 7 7 8 7 9 13 12 12 12 12 12 11 10 9 9 9 9 8 7 6 4 4 5 4 3 1 1 1 1 1 1 2 2 1 1 0 0 1 0 0 1 1 2 1 1 1
6 5 6 7 7 7 7 10 13 13 13 13 12 12 12 12 11 10 9 9 9 7 6 4 4 4 3 3 1 0 1 1 1 1 2 1 1 1 0 1 1 0 0 1 1 1 1 1 1
9 6 5 5 6 4 6 9 13 13 13 13 13 12 12 11 12 11 10 10 10 8 7 5 4 4 2 1 1 1 1 1 1 2 2 1 0 1 0 1 0 0 0 0 0 1 1 1 1
9 4 3 5 5 3 4 5 8 12 12 12 13 13 12 12 12 11 10 10 10 8 7 6 5 4 3 2 1 1 1 1 1 1 2 1 1 1 1 1 1 1 0 0 0 1 1 2 1
6 3 4 4 4 4 3 5 5 8 9 12 13 13 13 14 13 12 11 10 10 9 8 7 6 5 4 3 2 1 1 0 1 1 1 1 0 0 1 1 1 1 0 0 1 1 2 2 2
6 5 6 7 6 5 5 4 8 11 11 12 13 13 14 14 14 13 11 10 10 9 9 7 6 5 4 3 2 3 2 1 1 1 1 1 0 1 1 1 1 1 1 1 2 0 1 1 2
7 5 7 8 6 4 5 4 6 10 11 13 13 13 13 14 14 14 13 10 9 9 9 8 7 6 5 3 3 2 1 1 1 1 1 0 1 1 1 2 2 1 1 1 2 2 1 1 1
7 6 7 8 7 6 7 5 4 7 9 12 13 13 12 13 14 14 13 11 9 9 9 9 8 6 5 4 3 2 1 1 1 0 1 1 1 1 2 2 1 2 2 2 2 2 1 1 1
9 7 6 6 5 5 6 5 4 6 8 9 12 13 13 12 14 14 13 12 10 10 10 10 9 7 6 5 3 2 2 1 1 1 1 0 1 2 2 2 2 2 1 1 1 1 1 1 1
12 12 8 5 5 5 5 4 5 7 9 8 10 12 13 12 13 13 13 12 11 11 10 10 9 7 6 5 4 3 2 2 1 1 1 1 1 2 2 2 2 2 2 2 2 2 1 2 1
13 13 12 8 9 6 4 6 8 8 10 10 10 11 13 13 13 14 13 13 12 11 10 10 9 7 6 6 5 3 3 2 1 2 0 2 2 2 2 2 2 2 3 3 2 2 3 2 2
14 11 6 8 6 5 5 5 5 10 10 10 10 10 11 12 13 14 13 12 12 11 10 10 9 7 6 5 5 4 3 2 2 2 2 3 3 3 2 3 3 3 3 2 2 2 3 2 2
14 13 9 7 6 6 4 2 5 7 9 9 10 10 11 12 12 12 12 12 12 11 11 9 9 8 6 6 4 4 4 3 3 2 3 2 2 2 2 3 3 2 2 2 2 2 3 3 3
15 15 12 7 6 6 4 2 5 6 9 9 10 9 9 10 11 12 12 11 11 11 10 10 9 8 7 6 5 4 4 4 3 3 3 3 2 2 2 2 2 2 3 3 3 3 4 4 4
Wind_Direction
204 216 217 239 237 72 69 67 67 68 67 62 63 66 59 53 65 85 98 93 95 95 94 86 80 81 81 82 83 84 83 85 86 86 87 91 92 95 96 95 95 97 97 97 101 104 105 106 107
233 227 221 239 74 74 74 74 73 73 75 74 71 72 71 70 81 95 98 95 94 94 91 85 86 85 84 85 86 86 86 86 87 87 90 92 92 94 94 94 94 95 95 96 101 106 106 107 109
254 252 256 102 69 72 76 82 85 86 85 84 75 66 64 77 84 97 106 102 94 91 90 87 88 90 87 86 87 88 88 88 89 89 89 92 93 93 94 94 94 92 91 93 101 106 109 111 113
254 234 215 75 73 74 81 89 92 89 86 85 84 77 71 78 93 104 110 103 102 101 96 92 91 92 90 90 89 90 90 90 90 90 90 92 92 92 92 92 91 90 88 90 96 101 108 113 116
244 266 87 78 77 77 81 86 87 86 83 82 86 90 88 88 98 107 108 105 107 103 102 100 96 96 93 92 92 95 92 91 92 93 94 92 91 93 93 93 91 89 89 89 93 99 106 113 117
250 158 82 85 82 80 81 87 89 88 93 99 99 99 97 103 104 106 107 106 106 108 106 108 103 99 96 95 93 98 97 95 95 95 96 96 96 95 93 93 94 93 92 91 92 99 106 112 119
271 52 92 93 90 84 83 84 89 91 96 102 107 104 109 109 109 104 100 99 104 110 117 122 119 111 105 102 102 101 102 100 100 102 104 104 103 102 99 98 98 97 96 97 99 101 106 110 117
277 75 92 92 92 89 88 88 89 89 86 100 111 111 118 118 115 107 105 102 101 103 116 127 127 128 128 118 115 114 114 112 112 115 117 118 116 114 114 113 106 105 105 106 106 106 111 117 127
24 66 79 86 93 98 97 98 96 94 87 78 84 106 117 124 120 116 109 103 99 102 107 114 120 131 134 129 129 133 129 126 128 135 138 144 146 137 136 114 119 119 119 119 122 126 132 144 169
67 74 79 85 94 97 97 104 110 108 104 98 99 109 122 125 122 122 118 115 109 109 111 103 103 112 121 123 135 146 145 143 160 153 153 166 143 124 121 124 134 137 138 140 153 158 170 192 188
85 83 88 90 96 103 106 106 106 108 111 115 119 125 127 126 127 119 113 107 106 108 103 108 103 103 102 110 135 135 133 139 155 153 145 138 122 129 128 146 151 161 170 175 167 183 203 197 178
92 90 92 97 103 103 100 97 93 92 103 116 123 127 132 135 127 119 114 114 110 100 99 96 96 85 64 64 87 130 133 133 119 130 117 105 97 91 101 136 155 172 172 168 170 186 190 185 142
101 102 101 103 103 101 98 94 97 98 107 116 124 130 136 131 121 111 108 111 115 114 104 93 90 84 75 50 4 85 102 117 119 108 104 127 122 101 105 108 120 155 128 150 168 174 132 136 109
105 105 111 113 110 108 100 104 107 114 120 125 131 137 138 127 124 122 121 119 122 121 114 111 111 106 105 100 34 31 91 93 98 97 101 110 110 105 124 135 122 135 139 128 132 142 144 145 115
124 127 126 133 133 118 113 116 116 129 132 135 137 136 129 126 127 133 133 132 132 128 120 126 131 125 129 127 162 117 121 110 109 112 104 81 94 115 130 157 190 178 157 136 151 162 141 164 155
169 172 147 164 153 137 129 126 133 145 144 141 142 140 139 137 140 137 135 137 135 130 127 141 129 127 129 121 326 8 71 96 111 124 120 104 108 112 275 208 155 129 162 165 158 178 139 94 91
224 195 170 178 166 140 137 140 147 156 151 147 150 148 150 152 152 145 142 142 135 131 133 131 110 121 131 137 146 117 81 64 89 107 110 127 148 136 260 52 95 255 226 182 192 116 120 120 98
223 209 186 182 154 149 141 140 151 163 160 158 160 157 158 162 162 153 150 147 142 139 138 138 130 119 131 140 155 175 127 164 152 110 113 126 192 188 253 182 194 228 60 44 55 93 102 137 172
233 215 190 156 147 157 154 151 158 165 165 162 162 161 162 161 156 153 156 156 151 146 145 148 149 134 134 147 175 174 167 193 155 153 140 144 254 310 261 335 360 207 174 205 91 115 166 198 171
245 235 188 152 153 173 161 156 170 164 170 168 164 164 162 158 152 154 159 162 154 153 154 155 157 150 162 160 182 181 145 228 121 71 100 130 225 273 256 205 280 353 11 28 253 208 216 232 215
241 249 249 208 194 191 172 178 184 175 182 171 168 167 164 165 162 163 169 168 163 162 163 164 159 156 165 169 179 158 138 289 88 126 134 160 303 7 341 333 338 351 299 260 260 223 238 242 248
239 230 247 240 232 215 212 195 179 183 184 181 173 170 170 168 165 166 168 169 165 162 161 154 153 153 164 175 188 193 186 178 157 129 112 127 99 56 2 359 34 13 351 354 302 46 278 265 270
246 243 244 256 253 240 224 235 171 174 183 182 175 175 173 168 167 167 167 165 163 161 158 153 151 156 164 177 188 211 191 159 134 115 133 141 107 66 44 57 39 20 9 22 348 332 312 291 293
236 248 257 259 253 240 229 240 173 179 187 175 171 171 172 170 166 164 161 160 162 161 157 155 153 159 166 183 185 189 167 124 115 157 169 198 141 85 50 76 39 37 24 13 355 328 324 327 324
213 225 234 233 239 241 215 220 158 163 162 163 165 166 168 167 163 161 160 160 163 163 160 153 153 161 170 179 176 172 181 174 177 230 204 230 120 103 65 55 38 43 36 10 358 344 5 359 335
211 224 230 227 230 226 212 203 155 147 138 140 154 160 160 162 160 161 159 160 165 164 158 151 155 163 169 169 164 166 170 194 188 216 323 88 61 77 86 74 62 44 21 15 15 9 21 38 4
217 226 242 248 249 251 205 175 148 145 146 148 151 153 159 163 163 161 162 163 165 162 157 152 151 157 168 165 155 158 169 189 130 116 61 72 70 82 65 62 68 63 47 29 26 42 27 20 14
235 230 235 249 255 253 219 197 174 153 154 155 153 153 159 162 161 161 162 161 160 158 152 148 149 157 163 163 170 165 163 144 129 130 103 74 67 60 65 59 58 57 53 40 30 49 42 34 35
221 233 235 247 260 255 240 157 144 159 155 157 155 155 159 159 158 157 158 157 155 152 152 150 151 156 160 164 160 146 148 150 142 118 101 96 83 74 61 58 54 54 53 46 46 54 48 45 37
221 227 227 230 241 254 257 152 139 157 161 154 145 143 149 148 147 148 149 149 149 150 152 153 156 161 165 161 153 150 146 143 143 131 119 115 107 92 83 71 65 67 67 55 49 44 48 47 41